[[{"header":{"parameterUnit":"m.s-1","parameterCategory":2,"la1":30.2992,"la2":30.254,"lo1":-89.0895,"lo2":-89.0443,"dy":0.0025,"dx":0.0025,"nx":19,"ny":19,"refTime":"2026-03-11T21:00:00:Z","depth":"0","parameterNumber":2,"parameterNumberName":"U-component_of_CURRENTS"},"data":[0,0,0,0.1002,0.1003,0.1013,0.1013,0.1014,0.1014,0,0,0,0,0,0,0,0,0,0,0,0.0997,0.0997,0.1002,0.1003,0.1013,0.1013,0.1014,0.1014,0,0,0,0,0,0,0,0,0,0,0,0.0997,0.0997,0.0997,0.1003,0.1013,0.1013,0.1014,0.1007,0,0,0,0,0,0,0,0,0,0,0.0998,0.0993,0.0997,0.0997,0.1003,0.1013,0.1013,0.1007,0.1008,0.1007,0,0.1013,0,0.1017,0.1014,0.1014,0,0,0,0.0996,0.0993,0.1001,0.0997,0.1003,0.1013,0.1007,0.1008,0.1008,0.1008,0.1013,0.1013,0.1017,0.1014,0.1014,0.1045,0.1045,0,0,0.0996,0.0992,0.1001,0.1002,0.1011,0.1006,0.1007,0.1008,0.1007,0.1013,0.1013,0.1017,0.1014,0.1014,0.1045,0.1045,0,0,0,0.0998,0.0992,0.1,0.1002,0.1007,0.1007,0.1008,0.1007,0.1012,0.1013,0.1017,0.1014,0.1014,0.1044,0.1045,0.1075,0,0,0,0.0998,0.0994,0.1,0.0996,0.1007,0.1008,0.1007,0.1011,0.1012,0.1017,0.1014,0.1014,0.1044,0.1045,0.1073,0.1087,0,0,0,0.0995,0.0993,0.0997,0.0996,0.1005,0.1008,0.1012,0.1012,0.1014,0.1014,0.1014,0.1044,0.1045,0.1072,0.1084,0.1123,0,0,0,0.0987,0.0993,0.0997,0.1007,0.1005,0.1023,0.1012,0.102,0.1021,0.1014,0.1044,0.1045,0.1071,0.1083,0.1121,0.1143,0.1154,0,0,0.0989,0.0993,0.1,0.1004,0.1024,0.1021,0.1043,0.1038,0.1033,0.1041,0.1042,0.1074,0.1084,0.1123,0.1186,0.1194,0,0,0,0.0998,0.1002,0.101,0.1022,0.1036,0.1056,0.1053,0.1059,0.1071,0.1038,0.108,0.1086,0.1109,0.1119,0.1126,0.1118,0.1048,0.1048,0.1048,0.0985,0.1001,0.1016,0.1039,0.1055,0.1079,0.1096,0.1105,0.1092,0.1107,0.1115,0.1171,0.1182,0.1187,0.1178,0.112,0.1121,0.1121,0.1121,0.0988,0.0994,0.1023,0.1043,0.1074,0.1095,0.1134,0.114,0.1178,0.1152,0.1174,0.1156,0.1197,0.1184,0.1123,0.1122,0.1122,0.1122,0.1122,0.0971,0.0977,0.0998,0.1031,0.1067,0.1104,0.1154,0.1183,0.1205,0.1229,0.1249,0.1248,0.1234,0.1245,0.1246,0.1246,0.1246,0.1246,0.1246,0.0939,0.0963,0.0977,0.1017,0.1038,0.1088,0.1166,0.1211,0.1275,0.1288,0.1288,0.1256,0.1209,0.12,0.125,0.1249,0.1249,0.1249,0.1248,0.0909,0.0923,0.0944,0.0965,0.1018,0.1053,0.1146,0.1261,0.1321,0.1359,0.1348,0.1324,0.1319,0.1313,0.1307,0.1382,0.1382,0.1382,0.1382,0.0881,0.0893,0.0915,0.094,0.098,0.1036,0.1108,0.1218,0.1339,0.1379,0.1398,0.1367,0.1362,0.1357,0.135,0.1344,0.1426,0.1426,0.1426,0.0861,0.0877,0.088,0.0915,0.0956,0.101,0.1051,0.1133,0.1323,0.1425,0.1384,0.1382,0.1332,0.1324,0.1309,0.13,0.1286,0,0]},{"header":{"parameterUnit":"m.s-1","parameterCategory":2,"la1":30.2992,"la2":30.254,"lo1":-89.0895,"lo2":-89.0443,"dy":0.0025,"dx":0.0025,"nx":19,"ny":19,"refTime":"2026-03-11T21:00:00:Z","depth":"0","parameterNumber":3,"parameterNumberName":"V-component_of_CURRENTS"},"data":[0,0,0,-0.0356,-0.0357,-0.0373,-0.0373,-0.0372,-0.0372,0,0,0,0,0,0,0,0,0,0,0,-0.0347,-0.0347,-0.0356,-0.0357,-0.0373,-0.0373,-0.0372,-0.0372,0,0,0,0,0,0,0,0,0,0,0,-0.0347,-0.0347,-0.0347,-0.0357,-0.0373,-0.0373,-0.0372,-0.0365,0,0,0,0,0,0,0,0,0,0,-0.0352,-0.0345,-0.0347,-0.0347,-0.0357,-0.0373,-0.0373,-0.0365,-0.0365,-0.0359,0,-0.0361,0,-0.0368,-0.0372,-0.0372,0,0,0,-0.0355,-0.0345,-0.0352,-0.0347,-0.0357,-0.0373,-0.0365,-0.0365,-0.0366,-0.036,-0.0361,-0.0361,-0.0368,-0.0372,-0.0372,-0.035,-0.0349,0,0,-0.0354,-0.0347,-0.0351,-0.0352,-0.036,-0.0365,-0.0366,-0.0366,-0.0364,-0.0361,-0.0361,-0.0368,-0.0372,-0.0372,-0.035,-0.035,0,0,0,-0.0353,-0.0347,-0.0354,-0.0352,-0.0357,-0.0365,-0.0366,-0.0364,-0.0367,-0.0361,-0.0368,-0.0372,-0.0372,-0.035,-0.035,-0.0318,0,0,0,-0.0352,-0.0346,-0.0354,-0.0349,-0.0357,-0.0363,-0.0364,-0.0367,-0.0367,-0.0368,-0.0372,-0.0372,-0.035,-0.035,-0.0319,-0.0296,0,0,0,-0.0347,-0.0345,-0.0348,-0.0349,-0.0358,-0.0364,-0.0367,-0.0367,-0.0371,-0.0372,-0.0371,-0.035,-0.035,-0.032,-0.0298,-0.0281,0,0,0,-0.0339,-0.0329,-0.0347,-0.0338,-0.0357,-0.035,-0.0367,-0.0364,-0.0362,-0.0372,-0.035,-0.035,-0.0321,-0.03,-0.0283,-0.0267,-0.0259,0,0,-0.032,-0.0327,-0.0322,-0.0338,-0.0322,-0.0347,-0.0328,-0.0337,-0.0353,-0.0349,-0.0349,-0.0319,-0.0299,-0.0282,-0.024,-0.0233,0,0,0,-0.0311,-0.0305,-0.0304,-0.0301,-0.0306,-0.03,-0.0315,-0.0321,-0.0323,-0.0351,-0.0318,-0.0306,-0.0297,-0.029,-0.0284,-0.0404,-0.0348,-0.0348,-0.0348,-0.0268,-0.0275,-0.0256,-0.026,-0.0256,-0.0265,-0.0262,-0.0273,-0.0295,-0.0293,-0.0281,-0.0244,-0.0237,-0.0232,-0.0356,-0.0286,-0.0286,-0.0285,-0.0285,-0.0227,-0.0211,-0.0216,-0.0201,-0.0202,-0.0191,-0.0203,-0.0222,-0.0222,-0.0249,-0.0242,-0.0257,-0.0224,-0.0358,-0.0283,-0.0284,-0.0284,-0.0284,-0.0284,-0.0189,-0.018,-0.0179,-0.0156,-0.0137,-0.0146,-0.012,-0.0148,-0.0183,-0.0177,-0.0181,-0.0182,-0.0299,-0.0179,-0.0179,-0.0179,-0.0178,-0.0178,-0.0178,-0.0148,-0.0145,-0.0122,-0.0108,-0.009,-0.0069,-0.0072,-0.0072,-0.01,-0.0136,-0.0137,-0.03,-0.0212,-0.0216,-0.0175,-0.0176,-0.0176,-0.0176,-0.0177,-0.0094,-0.0102,-0.0067,-0.0048,-0.0008,0.0032,0.0024,0.002,-0.0,-0.0014,-0.024,-0.0119,-0.0127,-0.0132,-0.0135,-0.0075,-0.0075,-0.0075,-0.0075,-0.0058,-0.006,-0.0015,0.0022,0.0069,0.0085,0.0125,0.0088,-0.0079,-0.0194,-0.0267,-0.0311,-0.0309,-0.0332,-0.0333,-0.0341,-0.0335,-0.0336,-0.0336,-0.002,-0.0015,0.0025,0.005,0.0103,0.0145,0.0165,0.008,-0.0188,-0.0362,-0.0438,-0.0427,-0.0508,-0.0497,-0.0546,-0.0537,-0.0555,0,0]}],[{"header":{"parameterUnit":"m.s-1","parameterCategory":2,"la1":30.2992,"la2":30.254,"lo1":-89.0895,"lo2":-89.0443,"dy":0.0025,"dx":0.0025,"nx":19,"ny":19,"refTime":"2026-03-11T21:00:00:Z","depth":"2","parameterNumber":2,"parameterNumberName":"U-component_of_CURRENTS"},"data":[0,0,0,0.1059,0.1059,0.1071,0.1071,0.1073,0.1073,0,0,0,0,0,0,0,0,0,0,0,0.1053,0.1053,0.1059,0.106,0.1071,0.1071,0.1073,0.1073,0,0,0,0,0,0,0,0,0,0,0,0.1053,0.1053,0.1053,0.106,0.1071,0.1071,0.1073,0.1066,0,0,0,0,0,0,0,0,0,0,0.1056,0.1051,0.1053,0.1053,0.106,0.1071,0.1071,0.1066,0.1067,0.1067,0,0.1072,0,0.1076,0.1074,0.1074,0,0,0,0.1054,0.105,0.1059,0.1053,0.106,0.1071,0.1064,0.1067,0.1067,0.1068,0.1072,0.1072,0.1076,0.1074,0.1074,0.1106,0.1106,0,0,0.1053,0.1049,0.1058,0.1059,0.1067,0.1064,0.1064,0.1067,0.1066,0.1072,0.1073,0.1076,0.1074,0.1074,0.1106,0.1106,0,0,0,0.1055,0.1048,0.1057,0.1059,0.1064,0.1064,0.1065,0.1066,0.1071,0.1073,0.1076,0.1074,0.1074,0.1105,0.1106,0.1134,0,0,0,0.1055,0.105,0.1056,0.1053,0.1064,0.1066,0.1064,0.107,0.1071,0.1076,0.1074,0.1074,0.1105,0.1106,0.1133,0.1146,0,0,0,0.1052,0.105,0.1054,0.1053,0.1061,0.1066,0.107,0.107,0.1073,0.1074,0.1074,0.1105,0.1106,0.1132,0.1144,0.1182,0,0,0,0.1043,0.1049,0.1054,0.1063,0.1061,0.108,0.107,0.1079,0.1081,0.1074,0.1105,0.1106,0.1131,0.1142,0.118,0.1196,0.1205,0,0,0.1046,0.1049,0.1056,0.1061,0.1081,0.1078,0.1101,0.1097,0.1092,0.1102,0.1102,0.1133,0.1143,0.1181,0.1237,0.1245,0,0,0,0.1054,0.1059,0.1067,0.1079,0.1094,0.1114,0.1112,0.1118,0.113,0.1098,0.114,0.1146,0.1169,0.1175,0.1181,0.1109,0.1109,0.1109,0.1109,0.1041,0.1058,0.1073,0.1097,0.1112,0.1137,0.1155,0.1163,0.1151,0.1166,0.1174,0.1228,0.1235,0.124,0.1179,0.1179,0.1179,0.1179,0.1179,0.1044,0.105,0.108,0.11,0.1131,0.1152,0.1192,0.1198,0.1235,0.121,0.1231,0.121,0.1249,0.1182,0.1181,0.1181,0.1181,0.118,0.118,0.1027,0.1032,0.1053,0.1087,0.1123,0.116,0.121,0.1239,0.126,0.1284,0.13,0.1299,0.1249,0.13,0.13,0.13,0.13,0.1301,0.1301,0.0994,0.1018,0.1032,0.1072,0.1093,0.1143,0.1221,0.1265,0.1325,0.1337,0.1337,0.1269,0.1265,0.1256,0.1304,0.1304,0.1303,0.1303,0.1303,0.0963,0.0978,0.0998,0.1019,0.1073,0.1107,0.1198,0.1308,0.1367,0.1402,0.1372,0.1369,0.1365,0.1359,0.1353,0.1423,0.1423,0.1423,0.1423,0.0935,0.0947,0.0968,0.0993,0.1033,0.109,0.1157,0.1245,0.1344,0.137,0.1371,0.1334,0.1331,0.1322,0.1317,0.1308,0.1367,0.1367,0.1366,0.0916,0.0931,0.0934,0.0968,0.101,0.1063,0.1098,0.1126,0.1235,0.1359,0.1311,0.1429,0.1379,0.1373,0.1359,0.1351,0.1337,0,0]},{"header":{"parameterUnit":"m.s-1","parameterCategory":2,"la1":30.2992,"la2":30.254,"lo1":-89.0895,"lo2":-89.0443,"dy":0.0025,"dx":0.0025,"nx":19,"ny":19,"refTime":"2026-03-11T21:00:00:Z","depth":"2","parameterNumber":3,"parameterNumberName":"V-component_of_CURRENTS"},"data":[0,0,0,-0.0263,-0.0263,-0.0282,-0.0283,-0.0282,-0.0282,0,0,0,0,0,0,0,0,0,0,0,-0.0253,-0.0253,-0.0263,-0.0263,-0.0282,-0.0283,-0.0282,-0.0282,0,0,0,0,0,0,0,0,0,0,0,-0.0253,-0.0253,-0.0253,-0.0263,-0.0282,-0.0283,-0.0282,-0.0273,0,0,0,0,0,0,0,0,0,0,-0.0258,-0.0252,-0.0253,-0.0253,-0.0263,-0.0282,-0.0283,-0.0273,-0.0274,-0.0266,0,-0.0269,0,-0.0277,-0.0281,-0.0281,0,0,0,-0.0262,-0.0251,-0.0258,-0.0253,-0.0264,-0.0282,-0.0273,-0.0274,-0.0274,-0.0267,-0.0269,-0.027,-0.0277,-0.0281,-0.0281,-0.0261,-0.0261,0,0,-0.0261,-0.0254,-0.0258,-0.0259,-0.0268,-0.0273,-0.0274,-0.0274,-0.0273,-0.0269,-0.027,-0.0277,-0.0281,-0.0281,-0.0261,-0.0261,0,0,0,-0.0259,-0.0254,-0.0261,-0.0258,-0.0265,-0.0273,-0.0275,-0.0273,-0.0276,-0.027,-0.0277,-0.0281,-0.0281,-0.0261,-0.0261,-0.0232,0,0,0,-0.0258,-0.0253,-0.0261,-0.0257,-0.0265,-0.0272,-0.0273,-0.0276,-0.0276,-0.0277,-0.0281,-0.0281,-0.0261,-0.0261,-0.0233,-0.0211,0,0,0,-0.0252,-0.0252,-0.0255,-0.0256,-0.0266,-0.0273,-0.0276,-0.0276,-0.0281,-0.0281,-0.0281,-0.0261,-0.0261,-0.0234,-0.0213,-0.0197,0,0,0,-0.0245,-0.0237,-0.0254,-0.0247,-0.0266,-0.0259,-0.0276,-0.0274,-0.0273,-0.0281,-0.0261,-0.0261,-0.0234,-0.0215,-0.0198,-0.0178,-0.017,0,0,-0.0229,-0.0235,-0.0231,-0.0246,-0.0232,-0.0256,-0.0239,-0.0249,-0.0264,-0.0259,-0.0259,-0.0233,-0.0213,-0.0197,-0.0155,-0.0148,0,0,0,-0.0221,-0.0216,-0.0215,-0.0213,-0.0217,-0.0212,-0.0227,-0.0234,-0.0237,-0.0263,-0.0233,-0.0221,-0.0212,-0.0203,-0.0197,-0.0259,-0.0259,-0.0259,-0.0259,-0.0184,-0.0189,-0.0172,-0.0175,-0.0171,-0.018,-0.0178,-0.0189,-0.021,-0.021,-0.0198,-0.0165,-0.0155,-0.015,-0.0204,-0.0204,-0.0203,-0.0203,-0.0203,-0.0146,-0.0131,-0.0135,-0.0122,-0.0122,-0.0112,-0.0124,-0.0142,-0.0143,-0.0169,-0.0162,-0.0173,-0.0142,-0.0201,-0.0201,-0.0202,-0.0202,-0.0202,-0.0202,-0.0113,-0.0104,-0.0103,-0.0081,-0.0063,-0.0071,-0.0045,-0.0073,-0.0107,-0.0101,-0.0102,-0.0103,-0.0144,-0.0104,-0.0104,-0.0103,-0.0103,-0.0103,-0.0103,-0.0076,-0.0073,-0.0052,-0.0037,-0.002,0.0001,-0.0002,-0.0,-0.0027,-0.006,-0.0061,-0.0131,-0.0134,-0.0138,-0.01,-0.0101,-0.0101,-0.0101,-0.0102,-0.0027,-0.0035,-0.0001,0.0017,0.0058,0.0103,0.0093,0.0091,0.0071,0.006,-0.0039,-0.0042,-0.0048,-0.0053,-0.0055,0.0002,0.0002,0.0002,0.0002,0.0005,0.0004,0.0048,0.0084,0.0132,0.0155,0.0211,0.0199,0.0127,0.008,0.0077,0.006,0.0053,0.0051,0.0044,0.0043,0.0126,0.0126,0.0127,0.0041,0.0046,0.0085,0.0111,0.0165,0.022,0.0271,0.0253,0.0161,0.0132,0.0108,0.0009,-0.0028,-0.0033,-0.0047,-0.0054,-0.006,0,0]}],[{"header":{"parameterUnit":"m.s-1","parameterCategory":2,"la1":30.2992,"la2":30.254,"lo1":-89.0895,"lo2":-89.0443,"dy":0.0025,"dx":0.0025,"nx":19,"ny":19,"refTime":"2026-03-11T21:00:00:Z","depth":"4","parameterNumber":2,"parameterNumberName":"U-component_of_CURRENTS"},"data":[0,0,0,0.0906,0.0908,0.0975,0.0975,0.1015,0.1015,0,0,0,0,0,0,0,0,0,0,0,0.0885,0.0886,0.0906,0.0908,0.0975,0.0975,0.1015,0.1015,0,0,0,0,0,0,0,0,0,0,0,0.0885,0.0886,0.0887,0.0908,0.0975,0.0975,0.1015,0.0975,0,0,0,0,0,0,0,0,0,0,0.0915,0.0905,0.0886,0.0887,0.0909,0.0975,0.0975,0.0973,0.0977,0.0972,0,0.0991,0,0.1004,0.1017,0.1017,0,0,0,0.0905,0.0902,0.0919,0.0887,0.0909,0.0975,0.0944,0.0976,0.098,0.0977,0.0991,0.0993,0.1004,0.1017,0.1017,0.1064,0.1065,0,0,0.0901,0.0896,0.0916,0.0922,0.0936,0.0942,0.0946,0.0979,0.0987,0.0992,0.0994,0.1005,0.1017,0.1018,0.1064,0.1064,0,0,0,0.0893,0.0894,0.0911,0.092,0.0936,0.0944,0.0949,0.0986,0.0992,0.0995,0.1006,0.1018,0.1018,0.1064,0.1064,0.1093,0,0,0,0.089,0.0889,0.0909,0.0907,0.0936,0.0969,0.0955,0.0989,0.0994,0.1005,0.1018,0.1018,0.1063,0.1064,0.1092,0.1102,0,0,0,0.0881,0.0888,0.0899,0.0907,0.0937,0.0969,0.0977,0.0991,0.1,0.1017,0.1018,0.1063,0.1064,0.109,0.11,0.1129,0,0,0,0.0869,0.0886,0.0899,0.0924,0.0936,0.0976,0.0977,0.1008,0.1025,0.1018,0.1063,0.1064,0.109,0.1099,0.1127,0.0997,0,0,0,0.0879,0.0887,0.0901,0.0914,0.095,0.0966,0.1007,0.103,0.1033,0.1048,0.1049,0.1092,0.11,0.1129,0.1041,0,0,0,0,0.0897,0.0909,0.0922,0.095,0.0978,0.1014,0.1037,0.105,0.1081,0.1048,0.1099,0.1102,0.112,0.104,0.1068,0.1067,0.1067,0.1067,0.1067,0.0895,0.0915,0.0942,0.0974,0.1003,0.1049,0.1078,0.11,0.1099,0.112,0.1131,0.1179,0.1095,0.1137,0.1138,0.1138,0.1138,0.1138,0.1138,0.0904,0.0915,0.0956,0.0991,0.1034,0.1073,0.1121,0.1136,0.118,0.1165,0.118,0.1081,0.1141,0.114,0.114,0.114,0.1139,0.1139,0.1139,0.0889,0.0897,0.0934,0.0987,0.1041,0.1091,0.1137,0.1178,0.1205,0.1228,0.115,0.1203,0.1196,0.1243,0.1243,0.1243,0.1244,0.1244,0.1244,0.0851,0.0887,0.092,0.098,0.1015,0.1071,0.1153,0.1183,0.1226,0.117,0.1243,0.1214,0.1211,0.1202,0.1247,0.1246,0.1246,0.1245,0.1245,0.0819,0.0845,0.0883,0.092,0.0992,0.1019,0.1114,0.1139,0.1167,0.1152,0.1138,0.1143,0.1122,0.1121,0.1107,0.1126,0.1125,0.1123,0,0.0789,0.0806,0.0852,0.089,0.0922,0.0985,0.0986,0.1038,0.1074,0.1033,0.1177,0.1161,0.1163,0.1139,0.1135,0.1119,0,0,0,0.0768,0.0788,0.0805,0.0856,0.0884,0.0913,0.0981,0.0965,0.1057,0.1053,0.1085,0.1095,0.1207,0.1255,0.1234,0.1229,0.1214,0,0]},{"header":{"parameterUnit":"m.s-1","parameterCategory":2,"la1":30.2992,"la2":30.254,"lo1":-89.0895,"lo2":-89.0443,"dy":0.0025,"dx":0.0025,"nx":19,"ny":19,"refTime":"2026-03-11T21:00:00:Z","depth":"4","parameterNumber":3,"parameterNumberName":"V-component_of_CURRENTS"},"data":[0,0,0,-0.005,-0.0051,-0.0086,-0.0086,-0.0105,-0.0105,0,0,0,0,0,0,0,0,0,0,0,-0.0038,-0.0038,-0.005,-0.0051,-0.0086,-0.0086,-0.0105,-0.0105,0,0,0,0,0,0,0,0,0,0,0,-0.0037,-0.0038,-0.0038,-0.0051,-0.0086,-0.0086,-0.0105,-0.0085,0,0,0,0,0,0,0,0,0,0,-0.0055,-0.0046,-0.0038,-0.0038,-0.0052,-0.0085,-0.0086,-0.0085,-0.0086,-0.0082,0,-0.0087,0,-0.0096,-0.0105,-0.0106,0,0,0,-0.0052,-0.0045,-0.0054,-0.0038,-0.0052,-0.0085,-0.007,-0.0086,-0.0088,-0.0084,-0.0087,-0.0088,-0.0096,-0.0106,-0.0106,-0.0107,-0.0107,0,0,-0.005,-0.0044,-0.0053,-0.0055,-0.006,-0.0069,-0.0071,-0.0087,-0.0089,-0.0088,-0.0089,-0.0097,-0.0106,-0.0106,-0.0107,-0.0107,0,0,0,-0.0044,-0.0042,-0.0052,-0.0054,-0.0062,-0.007,-0.0073,-0.0088,-0.0091,-0.0089,-0.0097,-0.0106,-0.0106,-0.0107,-0.0107,-0.0084,0,0,0,-0.0043,-0.0039,-0.0051,-0.0047,-0.0062,-0.0079,-0.0073,-0.009,-0.0092,-0.0097,-0.0106,-0.0106,-0.0107,-0.0107,-0.0084,-0.0065,0,0,0,-0.0036,-0.0038,-0.0042,-0.0047,-0.0061,-0.0079,-0.0084,-0.0091,-0.0097,-0.0106,-0.0106,-0.0107,-0.0107,-0.0085,-0.0067,-0.0053,0,0,0,-0.0028,-0.0028,-0.0042,-0.0043,-0.0061,-0.0067,-0.0084,-0.0093,-0.0099,-0.0106,-0.0107,-0.0107,-0.0085,-0.0068,-0.0054,-0.002,0,0,0,-0.0021,-0.0027,-0.0027,-0.004,-0.0038,-0.0062,-0.006,-0.0079,-0.0096,-0.01,-0.0101,-0.0084,-0.0067,-0.0053,-0.0013,0,0,0,0,-0.002,-0.0019,-0.0021,-0.0026,-0.0035,-0.0039,-0.0061,-0.0071,-0.0085,-0.01,-0.0088,-0.0078,-0.007,-0.0054,-0.0106,-0.0106,-0.0106,-0.0106,-0.0106,0.0002,-0.0004,0.0003,-0.0005,-0.0007,-0.0024,-0.0029,-0.0046,-0.0066,-0.0072,-0.0062,-0.0039,-0.0022,-0.0071,-0.0071,-0.0071,-0.0071,-0.0071,-0.0071,0.0023,0.003,0.0024,0.0028,0.0023,0.0022,0.0005,-0.0013,-0.0021,-0.0044,-0.0038,-0.0034,-0.0069,-0.0069,-0.0069,-0.007,-0.007,-0.007,-0.007,0.0045,0.0048,0.0046,0.0056,0.0063,0.005,0.0067,0.004,0.0007,0.0012,0.0023,-0.002,-0.0018,0.001,0.001,0.001,0.001,0.001,0.001,0.0069,0.0069,0.0082,0.0087,0.0097,0.011,0.0103,0.0103,0.0069,0.006,0.0018,-0.0012,-0.0015,-0.0014,0.0013,0.0012,0.0012,0.0012,0.0011,0.0097,0.0095,0.0118,0.0131,0.016,0.0171,0.0166,0.0161,0.0162,0.0148,0.0084,0.008,0.0077,0.0072,0.0075,0.0129,0.013,0.013,0,0.0119,0.0118,0.0153,0.0183,0.0218,0.0213,0.0237,0.0228,0.018,0.0174,0.0152,0.008,0.0077,0.0073,0.0069,0.0074,0,0,0,0.014,0.0147,0.0178,0.0202,0.0241,0.025,0.0245,0.0241,0.0182,0.0195,0.0144,0.0141,0.0089,0.0019,0.0004,0.0001,0.0001,0,0]}]]